Regional Weather Roundup
Issued by NWS

Home | Current Version | Previous Version | Graphics & Text | Print | Product List | Glossary Off
Versions: 1 2 3 4 5 6 7 8 9 10 11 12 13 14 15 16 17 18 19 20 21 22 23 24 25 26 27 28 29 30 31 32 33 34 35 36 37 38 39 40 41 42 43 44 45 46 47 48 49 50

000
ASUS43 KMKX 211100
RWRWI

WISCONSIN REGIONAL WEATHER ROUNDUP
NATIONAL WEATHER SERVICE MILWAUKEE/SULLIVAN WI
500 AM CST SUN DEC 21 2014

NOTE: "FAIR" INDICATES FEW OR NO CLOUDS BELOW 12,000 FEET WITH NO
SIGNIFICANT WEATHER AND/OR OBSTRUCTIONS TO VISIBILITY.

WIZ001-002-006>008-014>016-023>028-211200-
NORTHWEST WISCONSIN

CITY           SKY/WX    TMP DP  RH WIND       PRES   REMARKS
SUPERIOR ARPT  CLOUDY    32  28  86 S7        29.98F WCI  25
ASHLAND        CLOUDY    31  26  82 S12       30.02F WCI  22
HAYWARD        CLOUDY    30  26  85 S7        29.99F FOG     WCI  23
SIREN          CLOUDY    32  28  84 S6        29.98F WCI  26
CUMBERLAND     CLOUDY    30  28  93 SE9       29.98F FOG     WCI  22
RICE LAKE      CLOUDY    30  28  93 SE10      30.01F FOG     WCI  21
CHETEK         CLOUDY    30  28  94 SE12      30.02F FOG     WCI  20
LADYSMITH      CLOUDY    30  28  94 SE6       30.05F FOG     WCI  24
EAU CLAIRE     NOT AVBL
MENOMONIE      CLOUDY    31  30  94 E7        30.03F FOG     WCI  25
NEW RICHMOND   CLOUDY    31  31  98 SE9       29.99F FOG     WCI  23
OSCEOLA        CLOUDY    32  32 100 SE8G16    30.00F FOG     WCI  25
$$

WIZ003>005-009-010-017-018-211200-
NORTH CENTRAL WISCONSIN

CITY           SKY/WX    TMP DP  RH WIND       PRES   REMARKS
MANITOWISH WTR CLOUDY    27  27 100 S8        30.02F FOG     WCI  19
ARBOR VITAE    CLOUDY    29  28  93 S7        30.03F FOG     WCI  22
WOODRUFF       CLOUDY    29  28  93 S7        30.03F FOG     WCI  22
RHINELANDER    CLOUDY    26  25  96 S7        30.05F FOG     WCI  18
EAGLE RIVER    CLOUDY    27  27 100 S7        30.04F FOG     WCI  19
LAND O LAKES   CLOUDY    28  27  96 S5        30.04F FOG     WCI  22
PHILLIPS       CLOUDY    28  26  92 S9        30.02F WCI  19
TOMAHAWK       CLOUDY    28  26  94 CALM      30.06F FOG
MEDFORD        CLOUDY    28  27  96 S8        30.05F FOG     WCI  19
MERRILL        CLOUDY    28  28  96 S6        30.08F FOG     WCI  22
$$

WIZ029-030-035-036-043>047-211200-
CENTRAL WISCONSIN

CITY           SKY/WX    TMP DP  RH WIND       PRES   REMARKS
WAUSAU         CLOUDY    29  26  89 S8        30.08F FOG     WCI  21
MOSINEE        CLOUDY    28  28 100 S8        30.10F FOG     WCI  20
MARSHFIELD     CLOUDY    29  26  89 SE6       30.07F FOG     WCI  23
STEVENS POINT  CLOUDY    28  26  94 CALM      30.12S FOG
WAUPACA        CLOUDY    31  28  89 SE5       30.14F FOG     WCI  26
WAUTOMA        NOT AVBL
WISC RAPIDS    CLOUDY    29  26  89 SE3       30.11F FOG
CAMP DOUGLAS   MIX PCPN  30  30 100 SE6       30.10F FOG     WCI  24
$$

WIZ011>013-019>022-031-037>040-048>050-211200-
NORTHEAST WISCONSIN

CITY           SKY/WX    TMP DP  RH WIND       PRES   REMARKS
ANTIGO         CLOUDY    26  26 100 S8        30.08F FOG     WCI  17
SHAWANO        CLOUDY    31  28  86 S5        30.14F FOG     WCI  26
OCONTO         CLOUDY    30  28  95 CALM      30.16F
STURGEON BAY   CLOUDY    28  25  86 S5        30.17F WCI  23
GREEN BAY      CLOUDY    30  27  88 S5        30.15F FOG     WCI  25
MANITOWOC      CLOUDY    30  28  93 SE3       30.17F
APPLETON       NOT AVBL
CLINTONVILLE   CLOUDY    30  28  93 S5        30.13F FOG     WCI  25
OSHKOSH        CLOUDY    30  27  88 S6        30.15F FOG     WCI  24
$$

WIZ032>034-041-042-053>061-211200-
SOUTHWEST WISCONSIN

CITY           SKY/WX    TMP DP  RH WIND       PRES   REMARKS
LA CROSSE      CLOUDY    34  30  85 S7        30.06F FOG     WCI  28
SPARTA         CLOUDY    31  29  92 SE7       30.09F FOG     WCI  24
VIROQUA        CLOUDY    30  30 100 SE9       30.05F VSB 1/4 WCI  22
BOSCOBEL       CLOUDY    34  31  88 CALM      30.11S FOG
PRAIRIE DU CHI CLOUDY    32  32  98 E5        30.09F FOG     WCI  28
PLATTEVILLE    CLOUDY    32  32  99 CALM      30.11F VSB 1/2
$$

WIZ056-057-062-063-064-067-068-211200-
SOUTH CENTRAL WISCONSIN

CITY           SKY/WX    TMP DP  RH WIND       PRES   REMARKS
REEDSBURG      CLOUDY    30  28  94 SE3       30.11F FOG
BARABOO/DELLS  CLOUDY    30  28  93 S5        30.12S FOG     WCI  25
LONE ROCK      NOT AVBL
MINERAL POINT  FOG       32  32 100 SE8       30.09F VSB 1/4 WCI  25
MADISON        LGT SNOW  31  29  92 S12       30.13F FOG     WCI  22
MIDDLETON      CLOUDY    33  32  98 S6        30.13F WCI  27
WATERTOWN      CLOUDY    31  30  97 SE6       30.15F FOG     WCI  25
MONROE         CLOUDY    32  32 100 S7        30.13S FOG     WCI  26
JANESVILLE     CLOUDY    32  32 100 S8        30.15F FOG     WCI  25
$$

WIZ051-052-058>065-066-070>072-211200-
SOUTHEAST WISCONSIN

CITY           SKY/WX    TMP DP  RH WIND       PRES   REMARKS
MILWAUKEE      CLOUDY    32  26  78 S7        30.19F WCI  26
WAUKESHA       CLOUDY    30  27  86 S7        30.18F WCI  23
MILWAUKEE/TIMM CLOUDY    32  27  80 S5        30.19F WCI  27
RACINE         CLOUDY    32  26  78 S6        30.21S WCI  26
BURLINGTON     CLOUDY    30  27  90 S5        30.18F WCI  25
KENOSHA        CLOUDY    32  27  81 S7        30.19F WCI  26
FOND DU LAC    CLOUDY    31  26  82 S7        30.15F WCI  24
SHEBOYGAN      CLOUDY    30  26  85 S6        30.17F WCI  24
WEST BEND      CLOUDY    30  27  86 S3        30.16F
JUNEAU         CLOUDY    30  28  91 SE7       30.15F FOG     WCI  23
$$

LSZ147-162-211200-
LAKE SUPERIOR

STATION/POSITION TIME  TEMP    WIND        PRES    WAVE
                       AIR SEA DIR/SP/G            HT/PER
                 (UTC) (F)     (DEG/KT/KT) (MB)    (FT/S)
DEVILS ISLAND    1000   32     190/  8/ 10 1017.9F
PORT WING        1000   32     180/  8/ 13 1016.6
SAXON HARBOR     1040   32     190/  3/ 10 1016.9F
$$

LMZ867-665-643>646-211200-
LAKE MICHIGAN

STATION/POSITION TIME  TEMP    WIND        PRES    WAVE
                       AIR SEA DIR/SP/G            HT/PER
                 (UTC) (F)     (DEG/KT/KT) (MB)    (FT/S)
CHAMBERS ISLAND  1000   30     150/  2/  5 1022.0F
NORTHPORT PIER   1037   30     160/  2/  4 1021.7F
SISTER BAY       1013             CALM       N/A
ALGOMA LAKESHORE 1014          220/ 13/ 14   N/A
KEWAUNEE LAKESHO 1000   31     200/  5/  7 1021.4F
SHEBOYGAN LAKESH 1000   32 34  190/  8/  9 1023.3F
PORT WASHINGTON  1040   33     190/  5/  8 1022.7F
MILWAUKEE LAKESH 1000   33     180/  6/  7   N/A
KENOSHA   LAKESH 1000   33     190/  5/  7 1023.0F
$$

TC  - TEMPERATURE IN CELSIUS
VSB - VISIBILITY IN STATUTE MILES
WCI - WIND CHILL INDEX
HX  - HEAT INDEX




USA.gov is the U.S. government's official web portal to all federal, state and local government web resources and services.